Flora, IL

12:55 AM CST on February 23, 2018 (GMT -0600)
Flora Municipal

Weather History for KFOA - March, 2014

Change the Weather History Date:

Wednesday, March 26, 2014

  Actual Average (KSLO) Record (KSLO)
Temperature  
Mean Temperature 30 °F -  
Max Temperature 45 °F 57 °F 82 °F (1991)
Min Temperature 15 °F 36 °F 18 °F (2014)
Degree Days  
Heating Degree Days 35    
Moisture  
Dew Point 15 °F    
Average Humidity 55    
Maximum Humidity 93    
Minimum Humidity 28    
Precipitation  
Precipitation 0.03 in - - ()
Sea Level Pressure  
Sea Level Pressure 30.28 in    
Wind  
Wind Speed 4 mph (SSE)    
Max Wind Speed 16 mph    
Max Gust Speed 23 mph    
Visibility 10 miles    
Events      
Averages and records for this station are not official NWS values.
T = Trace of Precipitation, MM = Missing Value Source: NWS Daily Summary

Daily Weather History Graph

Daily Weather History Graph

Search for Another Location

Airport or City:

Trip Planner

Search our weather history database for the weather conditions in past years. The results will help you decide how hot, cold, wet, or windy it might be!

Date:

Astronomy

Mar. 26, 2014 Rise Set
Actual Time 6:47 AM CDT 7:11 PM CDT
Civil Twilight 6:21 AM CDT 7:38 PM CDT
Nautical Twilight 5:50 AM CDT 8:09 PM CDT
Astronomical Twilight 5:18 AM CDT 8:41 PM CDT
Moon 3:53 AM CDT (3/26) 2:52 PM CDT (3/26)
Length of Visible Light 13h 16m
Length of Day
12h 23m
Waning Crescent, 21% of the Moon is Illuminated
Mar 26
Waning Crescent
Mar 30
New
Apr 7
First Quarter
Apr 15
Full
Apr 22
Last Quarter

Hourly Weather History & Observations

Time (CDT) Temp. Windchill Dew Point Humidity Pressure Visibility Wind Dir Wind Speed Gust Speed Precip Events Conditions
12:15 AM 24.8 °F - 12.6 °F 60% 30.31 in 10.0 mi Calm Calm - N/A   Clear
12:40 AM 24.8 °F 20.5 °F 12.4 °F 59% 30.31 in 10.0 mi NNW 3.5 mph - N/A   Clear
12:55 AM 24.4 °F - 12.6 °F 61% 30.31 in 10.0 mi Calm Calm - N/A   Clear
1:15 AM 24.3 °F - 12.6 °F 61% 30.31 in 10.0 mi Calm Calm - N/A   Clear
1:35 AM 22.1 °F - 13.1 °F 68% 30.31 in 10.0 mi Calm Calm - N/A   Clear
1:55 AM 20.3 °F - 13.5 °F 75% 30.31 in 10.0 mi Calm Calm - N/A   Clear
2:15 AM 18.9 °F - 13.8 °F 81% 30.32 in 10.0 mi Calm Calm - N/A   Clear
2:35 AM 21.2 °F - 13.3 °F 72% 30.32 in 10.0 mi Calm Calm - N/A   Clear
2:55 AM 20.1 °F - 13.3 °F 75% 30.32 in 10.0 mi Calm Calm - N/A   Clear
3:15 AM 22.3 °F - 13.5 °F 69% 30.32 in 10.0 mi Calm Calm - N/A   Clear
3:35 AM 19.2 °F - 13.8 °F 80% 30.32 in 10.0 mi Calm Calm - N/A   Clear
3:55 AM 17.6 °F - 12.9 °F 82% 30.32 in 10.0 mi Calm Calm - N/A   Clear
4:15 AM 17.6 °F - 14.5 °F 88% 30.32 in 10.0 mi Calm Calm - N/A   Clear
4:35 AM 16.7 °F 11.2 °F 14.2 °F 90% 30.33 in 10.0 mi WSW 3.5 mph - N/A   Clear
4:55 AM 18.3 °F - 14.9 °F 86% 30.33 in 10.0 mi Calm Calm - N/A   Clear
5:15 AM 16.5 °F 11.0 °F 13.6 °F 88% 30.34 in 10.0 mi SW 3.5 mph - N/A   Clear
5:35 AM 16.9 °F - 15.1 °F 93% 30.34 in 10.0 mi Calm Calm - N/A   Clear
5:55 AM 16.5 °F - 14.5 °F 92% 30.35 in 10.0 mi Calm Calm - N/A   Clear
6:15 AM 16.5 °F - 14.9 °F 93% 30.36 in 10.0 mi Calm Calm - N/A   Clear
6:35 AM 15.8 °F 10.2 °F 14.0 °F 93% 30.36 in 10.0 mi SW 3.5 mph - N/A   Clear
6:55 AM 16.2 °F - 14.4 °F 93% 30.37 in 10.0 mi Calm Calm - N/A   Clear
7:15 AM 15.8 °F 10.2 °F 13.8 °F 92% 30.37 in 10.0 mi SSW 3.5 mph - N/A   Clear
8:18 AM 23.0 °F - 17.6 °F 80% 30.38 in 10.0 mi Calm Calm - N/A   Clear
8:35 AM 25.5 °F - 18.5 °F 75% 30.38 in 10.0 mi Calm Calm - N/A   Clear
8:55 AM 26.8 °F 21.4 °F 16.2 °F 64% 30.38 in 10.0 mi SSE 4.6 mph - N/A   Clear
9:15 AM 27.9 °F 20.6 °F 15.8 °F 61% 30.38 in 10.0 mi SSE 6.9 mph - N/A   Clear
9:35 AM 29.1 °F 23.0 °F 15.8 °F 58% 30.38 in 10.0 mi SSE 5.8 mph - N/A   Clear
9:55 AM 29.8 °F 23.9 °F 14.4 °F 53% 30.39 in 10.0 mi South 5.8 mph - N/A   Clear
10:15 AM 31.5 °F 24.9 °F 14.7 °F 50% 30.40 in 10.0 mi SSE 6.9 mph - N/A   Clear
10:35 AM 32.0 °F 25.6 °F 13.6 °F 47% 30.40 in 10.0 mi South 6.9 mph - N/A   Clear
10:55 AM 32.7 °F 26.4 °F 13.5 °F 45% 30.39 in 10.0 mi SE 6.9 mph - N/A   Clear
11:15 AM 33.4 °F 27.3 °F 12.4 °F 42% 30.38 in 10.0 mi SSE 6.9 mph - N/A   Clear
11:35 AM 34.9 °F 29.0 °F 13.3 °F 41% 30.37 in 10.0 mi South 6.9 mph - N/A   Clear
11:55 AM 35.6 °F 29.2 °F 11.5 °F 37% 30.36 in 10.0 mi South 8.1 mph - N/A   Clear
12:15 PM 36.5 °F 30.3 °F 11.8 °F 36% 30.35 in 10.0 mi South 8.1 mph - N/A   Clear
12:35 PM 37.4 °F 31.4 °F 12.4 °F 36% 30.34 in 10.0 mi South 8.1 mph - N/A   Clear
12:55 PM 38.8 °F 32.1 °F 12.6 °F 34% 30.33 in 10.0 mi South 10.4 mph - N/A   Clear
1:15 PM 39.7 °F 34.3 °F 12.6 °F 33% 30.32 in 10.0 mi South 8.1 mph - N/A   Clear
1:35 PM 39.9 °F 32.5 °F 12.9 °F 33% 30.31 in 10.0 mi South 12.7 mph 17.3 mph N/A   Clear
1:55 PM 41.2 °F 34.5 °F 13.1 °F 32% 30.28 in 10.0 mi SSE 11.5 mph 16.1 mph N/A   Clear
2:15 PM 41.5 °F 35.0 °F 13.1 °F 31% 30.27 in 10.0 mi South 11.5 mph 23.0 mph N/A   Clear
2:35 PM 41.7 °F 35.6 °F 12.2 °F 30% 30.26 in 10.0 mi SSE 10.4 mph 19.6 mph N/A   Clear
2:55 PM 43.0 °F 36.8 °F 13.1 °F 30% 30.25 in 10.0 mi South 11.5 mph 18.4 mph N/A   Clear
3:15 PM 43.5 °F 38.9 °F 13.5 °F 30% 30.24 in 10.0 mi SSE 8.1 mph 17.3 mph N/A   Clear
3:35 PM 44.8 °F 37.7 °F 14.5 °F 30% 30.25 in - South 16.1 mph 21.9 mph 0.03 in   Clear
3:55 PM 44.6 °F 38.1 °F 13.5 °F 28% 30.23 in 10.0 mi South 13.8 mph 20.7 mph 0.03 in   Clear
4:15 PM 45.3 °F 38.7 °F 14.7 °F 29% 30.22 in 10.0 mi South 15.0 mph 19.6 mph N/A   Clear
4:35 PM 45.0 °F 38.5 °F 14.5 °F 29% 30.21 in 10.0 mi South 13.8 mph 20.7 mph N/A   Clear
4:55 PM 45.7 °F 39.5 °F 16.0 °F 30% 30.20 in 10.0 mi South 13.8 mph 20.7 mph N/A   Clear
5:35 PM 45.0 °F 38.5 °F 14.5 °F 29% 30.19 in 10.0 mi South 13.8 mph - N/A   Clear
5:55 PM 43.9 °F 38.3 °F 15.8 °F 32% 30.19 in 10.0 mi South 10.4 mph 18.4 mph N/A   Clear
6:15 PM 43.5 °F 37.5 °F 16.2 °F 33% 30.18 in 10.0 mi South 11.5 mph - N/A   Clear
6:35 PM 42.4 °F 37.0 °F 17.8 °F 37% 30.18 in 10.0 mi SSE 9.2 mph - N/A   Clear
6:55 PM 40.6 °F 35.4 °F 18.9 °F 42% 30.18 in 10.0 mi SSE 8.1 mph - N/A   Clear
7:15 PM 38.3 °F 32.5 °F 19.8 °F 47% 30.17 in 10.0 mi SE 8.1 mph - N/A   Clear
7:35 PM 38.5 °F 32.7 °F 18.9 °F 45% 30.16 in 10.0 mi SE 8.1 mph - N/A   Clear
7:55 PM 37.9 °F 32.1 °F 19.4 °F 47% 30.16 in 10.0 mi SE 8.1 mph - N/A   Clear
8:35 PM 38.8 °F 32.6 °F 19.2 °F 45% 30.16 in 10.0 mi SE 9.2 mph - N/A   Clear
8:55 PM 37.2 °F 31.2 °F 20.1 °F 50% 30.16 in 10.0 mi SE 8.1 mph - N/A   Clear
9:15 PM 35.6 °F 29.9 °F 21.4 °F 56% 30.16 in 10.0 mi SSE 6.9 mph - N/A   Clear
9:35 PM 37.0 °F 31.0 °F 20.5 °F 51% 30.16 in 10.0 mi SSE 8.1 mph - N/A   Clear
9:55 PM 37.4 °F 31.4 °F 21.9 °F 54% 30.16 in 10.0 mi SSE 8.1 mph - N/A   Clear
10:15 PM 37.4 °F 31.4 °F 21.2 °F 52% 30.15 in 10.0 mi SSE 8.1 mph - N/A   Clear
10:35 PM 38.3 °F 32.5 °F 21.0 °F 50% 30.15 in 10.0 mi SSE 8.1 mph - N/A   Clear
10:55 PM 38.7 °F 33.6 °F 21.4 °F 50% 30.14 in 10.0 mi SSE 6.9 mph - N/A   Clear
11:15 PM 39.2 °F 33.0 °F 20.5 °F 47% 30.13 in 10.0 mi SSE 9.2 mph - N/A   Clear
11:35 PM 39.4 °F 33.2 °F 20.5 °F 47% 30.12 in 10.0 mi SSE 9.2 mph - N/A   Clear
11:55 PM 40.1 °F 33.6 °F 20.7 °F 46% 30.12 in 10.0 mi SSE 10.4 mph - N/A   Clear